Orbital Elements at Epoch 2459200.5 (2020-Dec-17.0) TDB
Reference: JPL 18 (heliocentric ecliptic J2000)
Element | Value | Uncertainty (1-sigma) | Units |
e | .08127549212368881 | 3.6721e-08 | |
a | 2.435644474381934 | 1.5337e-08 | au |
q | 2.237686271088199 | 8.8057e-08 | au |
i | 13.23580129869404 | 7.068e-06 | deg |
node | 104.4903095107233 | 1.8036e-05 | deg |
peri | 272.024178673847 | 4.8075e-05 | deg |
M | 174.7555421278345 | 4.3868e-05 | deg |
tp | 2458526.518885905059 (2019-Feb-12.01888590) | 0.0001686 | TDB |
period | 1388.414914456284 3.80 | 1.3114e-05 3.59e-08 | d yr |
n | .259288485201111 | 2.4491e-09 | deg/d |
Q | 2.63360267767567 | 1.6584e-08 | au |
|
| | Orbit Determination Parameters
Additional Information
|